Visibility
15.0 15.0 15.0 15.0 15.0 15.0 15.0 15.0 15.0 15.0 15.0 15.0 15.0 15.0 15.0 15.0 15.0 15.0 15.0 15.0 15.0 15.0 15.0 15.0 15.0 15.0 15.0 15.0 13.5 4.3 5.4 4.8 10.5 15.0 15.0 15.0 15.0 15.0 15.0 15.0 15.0 15.0 15.0
15.0 15.0 15.0 15.0 15.0 15.0 15.0 15.0 15.0 15.0 15.0 15.0 15.0 15.0 15.0 15.0 15.0 15.0 15.0 15.0 15.0 15.0 14.6 15.0 15.0 15.0 11.5 15.0 15.0 3.4 8.8 3.5 10.9 15.0 15.0 15.0 15.0 15.0 15.0 15.0 15.0 15.0 15.0
15.0 15.0 15.0 15.0 15.0 15.0 15.0 15.0 13.1 15.0 15.0 15.0 15.0 15.0 15.0 15.0 15.0 15.0 15.0 15.0 15.0 15.0 15.0 15.0 15.0 11.8 9.9 5.1 15.0 11.8 8.0 11.1 5.3 15.0 15.0 15.0 15.0 15.0 15.0 15.0 15.0 15.0 15.0
15.0 15.0 15.0 15.0 15.0 15.0 15.0 15.0 15.0 15.0 15.0 15.0 15.0 15.0 15.0 15.0 15.0 15.0 15.0 15.0 12.8 12.7 11.4 15.0 15.0 15.0 15.0 9.7 9.1 7.4 7.8 9.2 7.5 15.0 15.0 15.0 15.0 15.0 15.0 15.0 15.0 15.0 15.0
15.0 15.0 15.0 15.0 15.0 15.0 15.0 15.0 15.0 15.0 15.0 15.0 15.0 15.0 15.0 15.0 15.0 15.0 15.0 15.0 15.0 15.0 8.4 15.0 15.0 15.0 14.0 8.4 6.4 8.1 7.2 8.7 10.1 15.0 15.0 15.0 15.0 15.0 15.0 15.0 15.0 15.0 15.0
15.0 15.0 15.0 15.0 15.0 15.0 15.0 15.0 15.0 15.0 15.0 15.0 15.0 15.0 15.0 15.0 15.0 15.0 15.0 15.0 15.0 15.0 15.0 15.0 15.0 15.0 12.5 6.5 8.1 6.4 8.6 9.7 12.2 15.0 15.0 15.0 15.0 15.0 15.0 15.0 15.0 15.0 15.0
15.0 15.0 15.0 15.0 15.0 15.0 15.0 15.0 15.0 12.6 15.0 15.0 15.0 15.0 15.0 15.0 15.0 15.0 15.0 15.0 6.4 12.7 15.0 0.3 0.4 14.8 6.4 12.9 8.9 4.2 6.1 9.7 14.2 15.0 11.8 8.7 15.0 15.0 15.0 15.0 10.6 15.0 15.0
15.0 15.0 15.0 15.0 15.0 15.0 15.0 15.0 15.0 15.0 15.0 15.0 15.0 15.0 15.0 15.0 15.0 15.0 15.0 15.0 10.8 15.0 15.0 15.0 15.0 0.7 3.8 9.3 9.5 7.2 6.1 9.7 14.8 15.0 15.0 14.2 15.0 15.0 15.0 15.0 15.0 15.0 14.8
15.0 15.0 14.9 15.0 15.0 15.0 15.0 15.0 15.0 14.3 15.0 15.0 15.0 15.0 15.0 15.0 15.0 15.0 15.0 15.0 15.0 15.0 15.0 15.0 15.0 10.7 7.8 5.8 5.4 8.0 9.0 12.8 15.0 6.7 6.4 15.0 15.0 15.0 15.0 15.0 15.0 15.0 15.0
15.0 10.9 15.0 15.0 15.0 12.5 3.6 15.0 15.0 15.0 15.0 15.0 15.0 15.0 15.0 15.0 15.0 15.0 15.0 15.0 15.0 15.0 15.0 15.0 15.0 15.0 11.6 5.1 3.1 12.5 15.0 10.1 4.8 8.8 15.0 15.0 15.0 15.0 15.0 15.0 15.0 15.0 15.0
15.0 15.0 9.9 6.8 15.0 13.0 15.0 15.0 8.8 15.0 15.0 14.8 15.0 15.0 15.0 15.0 15.0 15.0 15.0 15.0 15.0 15.0 15.0 15.0 15.0 15.0 15.0 14.9 11.9 5.6 7.0 8.4 13.4 15.0 15.0 15.0 15.0 15.0 15.0 15.0 15.0 15.0 15.0
15.0 15.0 15.0 10.2 5.7 1.5 11.7 14.4 15.0 15.0 14.4 15.0 7.1 15.0 15.0 15.0 15.0 15.0 15.0 15.0 15.0 15.0 15.0 15.0 15.0 15.0 15.0 14.4 7.5 13.2 15.0 9.9 6.6 6.9 7.4 9.5 12.0 15.0 14.9 15.0 15.0 15.0 15.0
15.0 15.0 15.0 15.0 14.6 15.0 11.8 15.0 5.1 10.6 13.4 15.0 15.0 15.0 13.8 15.0 15.0 15.0 15.0 15.0 15.0 15.0 15.0 15.0 15.0 15.0 15.0 15.0 11.8 7.3 11.3 5.5 15.0 15.0 15.0 15.0 15.0 10.2 15.0 9.4 13.7 15.0 15.0
15.0 15.0 15.0 15.0 15.0 10.6 15.0 15.0 6.0 5.2 8.8 9.2 15.0 15.0 13.6 15.0 15.0 15.0 15.0 15.0 15.0 15.0 15.0 15.0 12.6 11.0 15.0 14.5 15.0 15.0 15.0 12.6 4.8 15.0 15.0 14.3 12.6 15.0 14.6 15.0 15.0 15.0 15.0
15.0 15.0 13.2 15.0 15.0 14.9 15.0 15.0 6.7 12.5 9.1 5.0 7.0 8.2 14.6 15.0 15.0 15.0 15.0 15.0 15.0 15.0 15.0 15.0 15.0 15.0 15.0 15.0 15.0 15.0 15.0 5.6 14.0 10.0 14.2 3.9 1.1 0.3 1.3 15.0 4.1 9.6 15.0
15.0 15.0 15.0 14.6 14.9 6.2 15.0 15.0 14.3 7.8 7.7 15.0 15.0 15.0 15.0 15.0 15.0 15.0 15.0 15.0 15.0 15.0 15.0 15.0 15.0 15.0 15.0 15.0 15.0 14.8 15.0 15.0 13.8 15.0 6.2 5.0 15.0 15.0 14.2 0.1 0.5 3.3 1.8
0.2 0.0 0.4 6.9 10.8 9.0 15.0 12.6 14.3 9.7 11.0 15.0 15.0 15.0 15.0 15.0 15.0 15.0 15.0 15.0 15.0 15.0 15.0 15.0 15.0 15.0 15.0 15.0 15.0 15.0 15.0 15.0 15.0 15.0 15.0 15.0 15.0 15.0 15.0 4.8 14.9 10.5 11.9
0.0 0.0 0.0 0.1 4.2 6.2 7.9 12.6 9.7 8.7 15.0 15.0 15.0 15.0 15.0 14.7 12.4 15.0 15.0 15.0 15.0 15.0 15.0 15.0 15.0 15.0 15.0 15.0 15.0 15.0 15.0 15.0 15.0 15.0 15.0 15.0 15.0 15.0 11.3 10.0 2.5 0.7 2.1
0.0 0.0 0.0 0.0 0.6 5.0 5.8 7.9 6.7 5.3 13.2 1.7 7.0 9.2 15.0 15.0 9.2 9.3 7.8 9.1 12.8 14.2 5.4 8.6 15.0 15.0 14.9 10.7 11.9 13.1 15.0 15.0 14.7 12.9 12.8 15.0 14.3 14.2 14.3 15.0 15.0 9.9 0.6
0.0 0.0 0.0 0.0 0.1 0.0 0.1 6.4 0.1 0.1 0.6 1.9 1.3 14.3 8.5 5.6 12.6 9.7 6.7 15.0 15.0 15.0 5.0 10.0 10.8 10.7 15.0 15.0 15.0 15.0 15.0 15.0 15.0 15.0 15.0 15.0 15.0 15.0 15.0 15.0 15.0 9.2 1.7
0.0 0.0 0.0 0.0 0.0 0.0 0.0 0.2 0.1 0.1 0.5 2.9 1.7 0.1 7.6 3.4 5.7 13.1 15.0 15.0 15.0 15.0 15.0 15.0 15.0 15.0 15.0 15.0 15.0 15.0 15.0 15.0 15.0 15.0 8.7 15.0 15.0 15.0 14.8 15.0 15.0 13.5 13.7
0.0 0.0 0.0 0.0 0.0 0.0 0.1 0.1 0.1 0.0 0.1 3.2 1.3 0.1 0.7 5.4 1.0 3.0 12.6 15.0 15.0 15.0 15.0 10.5 2.5 5.8 15.0 15.0 15.0 15.0 15.0 15.0 15.0 2.2 2.2 15.0 15.0 15.0 15.0 15.0 15.0 14.9 15.0
1.9 3.0 0.4 6.9 15.0 14.1 8.0 7.5 3.8 0.0 0.0 0.1 0.1 0.1 0.4 0.9 4.4 12.5 8.2 15.0 15.0 15.0 15.0 14.4 9.7 1.6 2.9 0.7 15.0 15.0 15.0 15.0 15.0 15.0 15.0 15.0 15.0 15.0 15.0 15.0 15.0 15.0 15.0
0.2 15.0 15.0 15.0 15.0 15.0 15.0 15.0 15.0 15.0 15.0 14.7 9.1 14.3 10.2 5.6 3.5 1.4 1.4 2.4 1.5 1.2 1.0 0.7 0.7 0.7 0.9 1.7 1.9 12.1 10.8 7.6 15.0 15.0 15.0 15.0 15.0 15.0 15.0 15.0 15.0 15.0 15.0
0.1 0.4 0.7 4.3 4.1 15.0 15.0 14.1 15.0 15.0 15.0 15.0 15.0 15.0 15.0 15.0 15.0 7.7 13.7 8.5 0.8 3.0 8.4 1.9 2.2 2.8 0.8 2.2 15.0 15.0 15.0 15.0 15.0 15.0 15.0 15.0 15.0 15.0 15.0 15.0 15.0 15.0 15.0
0.1 0.1 0.1 0.1 4.7 15.0 9.7 15.0 15.0 15.0 15.0 15.0 15.0 15.0 15.0 15.0 15.0 15.0 2.5 15.0 11.7 15.0 15.0 13.9 9.5 6.8 12.2 15.0 15.0 15.0 15.0 15.0 15.0 15.0 15.0 15.0 15.0 15.0 15.0 15.0 15.0 15.0 15.0